sat.trackr.live / text

‹ back to catalog

ONEWEB-0027

NORAD 45432 · 2020-020J

PAYLOAD ACTIVE UNKNOWN

§ Identity

Operator
Country
UK
Launch date
2020-03-21
Launch site
TYMSC
Launch vehicle
Mass (kg)
RCS (m²)

Purposes: comms

External: N2YO · Heavens-Above · Gunter

§ Orbital elements

Epoch: 2026-05-25T01:51:47.232864Z

Period
109.42 min
Inclination
87.9161°
Eccentricity
0.0001550
Mean motion
13.16052239 rev/d
Perigee alt
1,198.7 km
Apogee alt
1,201.0 km
Semi-major
7,578.0 km
B*
1.2130e-4
RAAN
10.4483°
Arg perigee
93.0994°
Mean anomaly
267.0314°
Rev number
30,331

§ Raw data

ONEWEB-00271 45432U 20020J   26145.07763001  .00000059  00000+0  12130-3 0  99972 45432  87.9161  10.4483 0001550  93.0994 267.0314 13.16052239303312

JSON: /api/v1/satellites/45432 · /tle

For live sub-satellite position, see the globe view (requires WebGL).

§ Visibility from observer

Set your observer location to see the next 7 days of passes ≥ 10°. The values pass through the URL so the page stays shareable.

No JS? Fill the form by hand. The geolocation button needs JavaScript.